Location: Unspecified
(45.3712°N, 0.6436°E)
Time: 19:22:46
(UTC+02:00)

Envisat - Visible Passes

Search period start: 19 September 2018 00:00
Search period end: 29 September 2018 00:00
Orbit: 764 x 766 km, 98.2° (Epoch: 19 September)

Date Brightness Start Highest point End Pass type
(mag) Time Alt. Az. Time Alt. Az. Time Alt. Az.
19 Sep 3.3 21:06:06 10° S 21:11:10 71° WSW 21:16:16 10° NNW visible
20 Sep 3.1 20:29:31 10° SSE 20:34:28 55° ENE 20:39:27 10° N visible
20 Sep 5.5 22:10:10 10° SW 22:13:50 20° W 22:17:31 10° NW visible
21 Sep 4.3 21:32:01 10° SSW 21:36:49 41° W 21:41:37 10° NNW visible
22 Sep 3.0 20:54:54 10° SSE 20:59:58 88° WSW 21:05:06 10° NNW visible
22 Sep 6.0 22:38:11 10° WSW 22:39:44 11° W 22:41:17 10° WNW visible
23 Sep 3.4 20:18:32 10° SE 20:23:20 45° ENE 20:28:10 10° N visible
23 Sep 5.2 21:58:26 10° SSW 22:02:33 25° W 22:06:41 10° NW visible
24 Sep 3.8 21:20:39 10° S 21:25:35 52° W 21:30:34 10° NNW visible
25 Sep 2.9 20:43:45 10° SSE 20:48:49 75° ENE 20:53:54 10° N visible
25 Sep 5.8 22:25:40 10° WSW 22:28:24 14° W 22:31:08 10° NW visible
26 Sep 4.8 21:46:51 10° SSW 21:51:17 30° W 21:55:46 10° NNW visible
27 Sep 3.4 21:09:21 10° S 21:14:22 65° WSW 21:19:27 10° NNW visible
28 Sep 3.0 20:32:40 10° SSE 20:37:40 60° ENE 20:42:40 10° N visible
28 Sep 5.6 22:13:39 10° SW 22:17:06 18° W 22:20:33 10° NW visible
